Voltar ao catálogo

DELTA 1 DEB

AtivoPO
NORAD 21445·DEBRIS·🇺🇸 United States

Lançado Jun 12, 1975 de Vandenberg Space Force Base

Loading…

Próximas Passagens (próximas 24 horas)

TLE

AtualizadoSource: Space-Track

Época: Sep 13, 2026, 13:54 UTC

1 21445U 75052ED  26256.57919897 -.00000010  00000-0  66194-4 0  9993
2 21445  99.6505 266.5855 0080778 235.3317 249.5228 13.28574857714478

Acompanhe DELTA 1 DEB em tempo real com AllMySat

Download on the App Store